Location: Saint Louis
(38.6272°N, 90.1978°W)
Time: 01:43:30
(UTC-06:00)

ISS - Pass Details

Date: 17 November 2013
Orbit: 401 x 410 km, 51.6° (Epoch: 09 December)

Event Time Altitude Azimuth Distance (km) Brightness Sun altitude
Exits shadow 04:16:19 - 41° (NE) 1,579 0.1 -29.0°
Enters shadow 05:14:16 -69° 285° (WNW) 12,457 4.1 -17.8°
Maximum altitude 05:52:52 37° 32° (NNE) 668 -2.1 -10.5°
